Overview Statistics Trail Chart Weather Telemetry Raw packets
 

This is the latest recevied weather packets stored in our database for station/object LU3GHF-13. If no packets are shown the sender has not sent any weather packets the latest 10 day(s).

<< 29 30 31 32 33 34 35 >>
Time Temp. Humidity Pressure Rain* Wind** Luminosity Snow
1788164076 18.89° C 97% 1001.6 hPa - - - -
1788163421 18.89° C 97% 1001.8 hPa - - - -
1788162790 18.89° C 97% 1001.9 hPa - - - -
1788162139 18.89° C 98% 1002 hPa - - - -
1788161485 18.89° C 98% 1002.3 hPa - - - -
1788160881 18.89° C 98% 1002.3 hPa - - - -
1788160248 18.89° C 98% 1002.4 hPa - - - -
1788159591 18.89° C 98% 1002.5 hPa - - - -
1788158981 18.33° C 100% 1002.6 hPa - - - -
1788158363 - - 1002.5 hPa - - - -
1788157736 18.89° C 99% 1002.2 hPa - - - -
1788157097 18.89° C 98% 1002.7 hPa - - - -
1788156444 18.89° C 97% 1002.8 hPa - - - -
1788155841 19.44° C 96% 1003 hPa - - - -
1788155226 18.89° C 97% 1003.2 hPa - - - -
1788154574 18.89° C 97% 1002.9 hPa - - - -
1788153942 19.44° C 96% 1003.3 hPa - - - -
1788153298 18.89° C 97% 1003.3 hPa - - - -
1788152663 19.44° C 96% 1003.4 hPa - - - -
1788152026 18.89° C 97% 1003.4 hPa - - - -
1788151378 19.44° C 95% 1003.9 hPa - - - -
1788150747 19.44° C 95% 1004.2 hPa - - - -
1788150110 20° C 94% 1004.6 hPa - - - -
1788149470 19.44° C 95% 1004.9 hPa - - - -
1788148832 20° C 93% 1005.3 hPa - - - -

* Rain since midnight (hover to see other rain measurements)
** Current wind speed in m/s (hover to see current wind gust speed)